Content
SEND FEEDBACK

Daily
Averages
Monthly
Summary
United States of America

ACHANG BAY, GUAM


Home > North America > United States > Guam
Elevation: 30 feet     Latitude: 13 16N     Longitude: 144 45E

WEATHER
 
SELECT A DAY
Number of Records: 342,273;   Date Range: 1/1/95 - 8/30/14
 
SHARE

PRINT THIS DATA

[ ← Previous Day ]
WEATHER ALMANAC - MARCH 25, 2014
[ Next Day → ]
[ °C ]   °F
Weather ElementAverageHighLow
Temperature78.8 °F84.4 °F (11:58 am)75.2 °F (3:54 am)
Dewpoint72.8 °F75.2 °F (11:43 pm)70.7 °F (12:58 am)
Humidity81.9 %94 % (11:43 pm)67 % (2:58 pm)
Barometer29.92 in29.97 in (9:08 am)29.84 in (2:58 pm)
Wind Speed16.7 mph20.7 mph (8:15 am)
Wind Gust25.3 mph (2:28 pm)
Weather ElementAverage
Visibility9.8 mi
Wind DirectionENE (66 °)

Weather ElementTotal
Precipitation0.03 in
Cooling Degree Days14.8 (Base 65)
Growing Degree Days29.8 (Base 50)
Averaged from 83 records on March 25, 2014
WEATHER CONDITIONS BREAKOUT
WIND DIRECTION BREAKOUT
WEATHER BY HOUR - MARCH 25, 2014
[ °C ]   °F
Local TimeTemperatureDewpointHumidityBarometerVisibilityWind DirectionWind SpeedGust SpeedPrecipitationEventsConditions
12:48 AM77.0 °F71.6 °F83 %29.93 in10.0 miENE (60°)13.8 mphMostly Cloudy
12:58 AM77.5 °F70.7 °F79 %29.89 in10.0 miENE (60°)12.7 mphMostly Cloudy
1:08 AM77.0 °F71.6 °F83 %29.92 in10.0 miENE (70°)11.5 mphScattered Clouds
1:58 AM77.5 °F71.6 °F82 %29.88 in10.0 miENE (60°)13.8 mphScattered Clouds
2:33 AM77.0 °F73.4 °F89 %29.89 in10.0 miENE (60°)12.7 mphScattered Clouds
2:38 AM77.0 °F73.4 °F89 %29.89 in10.0 miNE (50°)13.8 mphMostly Cloudy
2:53 AM77.0 °F73.4 °F89 %29.89 in10.0 miENE (60°)13.8 mphScattered Clouds
2:58 AM77.4 °F72.7 °F85 %29.86 in10.0 miNE (50°)18.4 mphScattered Clouds
3:28 AM77.0 °F71.6 °F83 %29.89 in10.0 miENE (60°)17.3 mphMostly Cloudy
3:29 AM77.0 °F71.6 °F83 %29.89 in9.0 miENE (60°)15.0 mphRainLight Rain
3:34 AM77.0 °F71.6 °F83 %29.89 in8.0 miENE (60°)16.1 mphRainLight Rain
3:44 AM77.0 °F71.6 °F83 %29.89 in10.0 miENE (60°)13.8 mphMostly Cloudy
3:54 AM75.2 °F71.6 °F89 %29.89 in10.0 miENE (70°)13.8 mphScattered Clouds
3:58 AM75.9 °F71.4 °F86 %29.86 in10.0 miENE (70°)12.7 mph0.02 inScattered Clouds
4:58 AM75.9 °F71.8 °F87 %29.87 in10.0 miENE (60°)13.8 mphScattered Clouds
5:58 AM76.6 °F71.6 °F84 %29.88 in10.0 miENE (60°)12.7 mphMostly Cloudy
6:18 AM77.0 °F71.6 °F83 %29.91 in10.0 miENE (60°)15.0 mphMostly Cloudy
6:23 AM77.0 °F71.6 °F83 %29.91 in10.0 miENE (60°)12.7 mphMostly Cloudy
6:28 AM77.0 °F71.6 °F83 %29.92 in10.0 miENE (60°)12.7 mphMostly Cloudy
6:43 AM77.0 °F71.6 °F83 %29.92 in10.0 miENE (60°)15.0 mphMostly Cloudy
6:53 AM77.0 °F71.6 °F83 %29.93 in10.0 miENE (70°)13.8 mphMostly Cloudy
6:58 AM77.5 °F71.4 °F81 %29.91 in10.0 miENE (70°)16.1 mphMostly Cloudy
7:18 AM78.8 °F71.6 °F78 %29.93 in10.0 miENE (70°)16.1 mphMostly Cloudy
7:38 AM77.0 °F71.6 °F83 %29.94 in10.0 miENE (60°)13.8 mphMostly Cloudy
7:48 AM77.0 °F71.6 °F83 %29.95 in10.0 miENE (60°)12.7 mphMostly Cloudy
7:58 AM78.3 °F72.5 °F82 %29.92 in10.0 miENE (60°)15.0 mphMostly Cloudy
8:03 AM78.8 °F73.4 °F83 %29.95 in10.0 miENE (60°)15.0 mphOvercast
8:08 AM78.8 °F73.4 °F83 %29.95 in10.0 miENE (70°)16.1 mphOvercast
8:13 AM78.8 °F73.4 °F83 %29.95 in10.0 miENE (70°)17.3 mphMostly Cloudy
8:15 AM78.8 °F73.4 °F83 %29.95 in7.0 miENE (70°)20.7 mphRainLight Rain
8:20 AM77.0 °F73.4 °F89 %29.96 in6.0 miENE (70°)16.1 mphRainLight Rain
8:25 AM77.0 °F73.4 °F89 %29.96 in5.0 miEast (80°)12.7 mphRainLight Rain
8:37 AM78.8 °F73.4 °F83 %29.96 in10.0 miEast (80°)16.1 mph20.7 mphMostly Cloudy
8:58 AM79.2 °F72.9 °F81 %29.94 in10.0 miENE (70°)19.6 mph0.01 inMostly Cloudy
9:08 AM78.8 °F73.4 °F83 %29.97 in10.0 miENE (70°)18.4 mphMostly Cloudy
9:23 AM80.6 °F73.4 °F79 %29.97 in10.0 miENE (70°)19.6 mphMostly Cloudy
9:28 AM80.6 °F73.4 °F79 %29.97 in10.0 miENE (70°)19.6 mphMostly Cloudy
9:33 AM80.6 °F73.4 °F79 %29.97 in10.0 miENE (60°)19.6 mphMostly Cloudy
9:48 AM80.6 °F73.4 °F79 %29.97 in10.0 miENE (70°)18.4 mphMostly Cloudy
9:58 AM80.2 °F72.3 °F77 %29.94 in10.0 miENE (70°)19.6 mphMostly Cloudy
10:03 AM82.4 °F73.4 °F74 %29.97 in10.0 miENE (70°)19.6 mphMostly Cloudy
10:08 AM82.4 °F73.4 °F74 %29.97 in10.0 miENE (70°)20.7 mphMostly Cloudy
10:13 AM82.4 °F73.4 °F74 %29.97 in10.0 miENE (70°)18.4 mphScattered Clouds
10:58 AM82.4 °F72.7 °F72 %29.97 in10.0 miENE (70°)18.4 mph23.0 mphScattered Clouds
11:38 AM82.4 °F73.4 °F74 %29.95 in10.0 miENE (70°)18.4 mphMostly Cloudy
11:48 AM84.2 °F73.4 °F70 %29.95 in10.0 miENE (60°)17.3 mphScattered Clouds
11:58 AM84.4 °F73.0 °F69 %29.92 in10.0 miENE (60°)16.1 mphScattered Clouds
12:58 PM83.8 °F72.7 °F69 %29.91 in10.0 miENE (70°)18.4 mphPartly Cloudy
1:58 PM84.2 °F73.4 °F70 %29.87 in10.0 miENE (70°)18.4 mph23.0 mphScattered Clouds
2:18 PM82.4 °F73.4 °F74 %29.89 in10.0 miENE (60°)19.6 mphMostly Cloudy
2:28 PM82.4 °F73.4 °F74 %29.89 in10.0 miEast (80°)18.4 mph25.3 mphScattered Clouds
2:58 PM82.6 °F70.7 °F67 %29.84 in10.0 miENE (70°)16.1 mph23.0 mphPartly Cloudy
3:58 PM82.6 °F71.2 °F68 %29.84 in10.0 miEast (80°)18.4 mphScattered Clouds
4:58 PM81.0 °F72.0 °F74 %29.86 in10.0 miENE (70°)16.1 mphClear
5:58 PM79.3 °F72.9 °F80 %29.86 in10.0 miEast (80°)17.3 mphScattered Clouds
6:38 PM78.8 °F73.4 °F83 %29.90 in10.0 miENE (70°)18.4 mphMostly Cloudy
6:43 PM78.8 °F73.4 °F83 %29.90 in10.0 miENE (70°)18.4 mphScattered Clouds
6:48 PM78.8 °F73.4 °F83 %29.90 in10.0 miENE (60°)18.4 mphMostly Cloudy
6:58 PM78.4 °F72.5 °F82 %29.87 in10.0 miENE (70°)19.6 mphMostly Cloudy
7:13 PM78.8 °F73.4 °F83 %29.91 in10.0 miENE (70°)16.1 mphMostly Cloudy
7:23 PM78.8 °F73.4 °F83 %29.91 in10.0 miENE (60°)16.1 mphScattered Clouds
7:28 PM78.8 °F73.4 °F83 %29.91 in10.0 miENE (60°)16.1 mphMostly Cloudy
7:33 PM78.8 °F73.4 °F83 %29.92 in10.0 miENE (70°)18.4 mphScattered Clouds
7:58 PM78.3 °F73.2 °F84 %29.89 in10.0 miENE (70°)18.4 mphScattered Clouds
8:13 PM78.8 °F73.4 °F83 %29.93 in10.0 miENE (60°)17.3 mphMostly Cloudy
8:18 PM78.8 °F73.4 °F83 %29.92 in10.0 miENE (60°)18.4 mphMostly Cloudy
8:23 PM78.8 °F73.4 °F83 %29.93 in10.0 miENE (60°)18.4 mphMostly Cloudy
8:33 PM78.8 °F73.4 °F83 %29.93 in10.0 miENE (60°)18.4 mphMostly Cloudy
8:38 PM78.8 °F73.4 °F83 %29.93 in10.0 miENE (70°)17.3 mphMostly Cloudy
8:43 PM78.8 °F73.4 °F83 %29.93 in10.0 miENE (70°)15.0 mphScattered Clouds
8:58 PM77.9 °F73.8 °F87 %29.91 in10.0 miENE (70°)17.3 mphScattered Clouds
9:13 PM78.8 °F73.4 °F83 %29.94 in10.0 miENE (70°)19.6 mphMostly Cloudy
9:18 PM78.8 °F73.4 °F83 %29.94 in10.0 miENE (70°)18.4 mphMostly Cloudy
9:43 PM77.0 °F73.4 °F89 %29.94 in10.0 miENE (70°)19.6 mphMostly Cloudy
9:53 PM77.0 °F73.4 °F89 %29.94 in10.0 miENE (60°)16.1 mphMostly Cloudy
9:58 PM77.9 °F74.1 °F88 %29.91 in10.0 miENE (70°)20.7 mphMostly Cloudy
10:23 PM77.0 °F73.4 °F89 %29.95 in10.0 miENE (60°)17.3 mphMostly Cloudy
10:48 PM77.0 °F73.4 °F89 %29.95 in10.0 miENE (60°)18.4 mphMostly Cloudy
10:58 PM77.4 °F72.9 °F86 %29.92 in10.0 miENE (70°)16.1 mphMostly Cloudy
11:03 PM77.0 °F73.4 °F89 %29.95 in10.0 miENE (70°)16.1 mphMostly Cloudy
11:08 PM77.0 °F73.4 °F89 %29.95 in10.0 miENE (60°)16.1 mphMostly Cloudy
11:43 PM77.0 °F75.2 °F94 %29.94 in10.0 miENE (70°)18.4 mphOvercast
11:58 PM77.2 °F73.6 °F89 %29.91 in10.0 miENE (70°)16.1 mphMostly Cloudy
Hourly data recorded from PGUA, located miles away from Achang Bay, Guam







STORIES FROM OUR PARTNERS